#timestamp,LO_Frequency,Hit,StdDev 
1613397615.2,286046979.6,N
1613397635.1,286046976.0,N
1613397636.0,286046976.0,N
1613397655.8,286046974.4,N
1613397675.7,286046972.0,N
1613397695.5,286046970.8,N
1613397715.3,286046964.5,N
1613397735.2,286046965.0,N
1613397755.0,286046968.8,N
1613397755.9,286046968.8,N
1613397775.7,286046969.6,N
1613397795.6,286046970.7,N
1613397815.4,286046963.3,N
1613397835.3,286046956.5,N
1613397855.1,286046960.4,N
1613397856.0,286046960.4,N
1613397875.8,286046954.0,N
1613397895.7,286046952.9,N
1613397915.5,286046946.9,Y
1613397935.4,286046967.6,P
1613397955.2,286046961.3,P
1613397975.0,286046958.9,P
1613397975.9,286046958.9,Y
1613397995.8,286046994.8,P
1613398015.6,286046992.1,N
1613398035.5,286046996.0,N
1613398055.3,286046992.1,N
1613398075.1,286046994.9,N
1613398095.9,286046986.5,N
1613398115.7,286046981.5,N
1613398135.5,286046982.8,N
1613398155.4,286046984.1,N
1613398175.2,286046983.7,N
1613398195.1,286046984.3,N
1613398196.0,286046984.3,N
1613398215.8,286046987.1,N
1613398235.6,286046991.4,N
1613398255.5,286046991.0,N
1613398275.3,286046954.1,Y
1613398295.2,286046998.2,P
1613398315.9,286047002.7,N
1613398335.7,286047000.6,N
1613398355.6,286047000.3,N
1613398375.4,286047000.1,N
1613398395.3,286047002.5,N
1613398415.1,286047000.6,N
1613398416.0,286047000.6,N
1613398435.8,286046998.1,N
1613398455.7,286047000.0,N
1613398475.5,286046998.3,N
1613398495.3,286047002.4,N
1613398515.2,286047000.0,N
1613398535.0,286047002.8,N
1613398535.9,286047002.8,N
1613398555.8,286047001.5,N
1613398575.6,286046999.9,N
1613398595.5,286046997.0,N
1613398615.3,286046996.2,N
1613398635.1,286046988.7,Y
1613398655.9,286046983.7,P
1613398675.7,286046986.4,N
1613398695.6,286046982.9,N
1613398715.4,286046978.8,Y
1613398735.2,286046987.7,P
1613398755.1,286046992.8,P
1613398756.0,286046992.8,P
1613398775.8,286046996.3,N
1613398795.6,286046991.0,N
1613398815.5,286046986.9,Y
1613398835.3,286046998.3,P
1613398855.2,286047000.4,N
1613398875.9,286046998.8,N
1613398895.7,286046995.3,N
1613398915.6,286046992.8,N
1613398935.4,286046994.6,N
1613398955.2,286046994.8,N
1613398975.1,286046995.8,N
1613398976.0,286046995.8,N
1613398995.8,286046999.1,N
1613399015.7,286047000.6,N
1613399035.5,286046993.3,N
1613399055.3,286046988.7,Y
1613399075.2,286046991.9,P
1613399095.0,286046988.8,P
1613399095.9,286046988.8,P
1613399115.8,286046987.6,Y
1613399135.6,286046997.6,P
1613399155.4,286046996.3,N
1613399175.3,286046999.6,N
1613399195.1,286046999.5,N
1613399215.9,286047000.7,N
1613399235.7,286047000.4,N
1613399255.5,286046997.8,N
1613399275.4,286046996.3,N
1613399295.2,286046992.6,N
1613399315.1,286046991.6,N
1613399316.0,286046991.6,N
1613399335.8,286046987.2,Y
1613399355.6,286046983.3,P
1613399375.5,286046984.0,N
1613399395.3,286046985.2,N
1613399415.2,286046990.9,N
1613399435.9,286046994.3,N
1613399455.7,286046986.3,N
1613399475.6,286046999.4,N
1613399495.4,286046998.5,N
1613399515.3,286046998.5,N
1613399535.1,286046996.6,N
1613399536.0,286046996.6,N
1613399555.8,286046994.9,N
1613399575.7,286046997.8,N
1613399595.5,286047004.3,N
1613399615.4,286046998.8,N
1613399635.2,286046996.7,N
1613399655.0,286046997.8,N
1613399655.9,286046997.8,N
1613399675.8,286046997.7,N
1613399695.6,286047000.6,N
1613399715.4,286046993.4,N
1613399735.3,286046992.9,N
1613399755.1,286046993.4,N
1613399775.9,286046995.4,N
1613399795.7,286046997.3,N
1613399815.5,286046998.7,N
1613399835.4,286047000.7,N
1613399855.2,286046994.5,N
1613399875.0,286046994.5,N
1613399875.9,286046994.5,N
1613399895.8,286047002.3,N
1613399915.6,286047001.1,N
1613399935.5,286047000.7,N
1613399955.3,286046998.7,N
1613399975.1,286047000.9,N
1613399995.9,286047000.9,N
1613400015.7,286047000.4,N
1613400035.6,286047004.5,N
1613400055.4,286047007.8,N
1613400105.3,286047011.1,E
1613400115.2,286047009.9,N
1613400135.0,286047005.2,P
1613400135.9,286047005.2,N
1613400155.8,286047004.6,N
1613400175.6,286047004.4,N
1613400195.5,286046995.1,N
1613400215.3,286046991.9,N
1613400235.1,286046990.9,N
1613400255.9,286046987.5,N
1613400275.7,286046987.0,N
1613400295.5,286046987.9,N
1613400315.4,286046984.2,N
1613400335.2,286046982.1,N
1613400355.1,286046981.1,N
1613400356.0,286046981.1,N
1613400375.8,286046980.9,N
1613400395.6,286046982.9,N
1613400415.5,286046987.1,N
1613400435.3,286046995.7,N
1613400455.1,286046999.3,N
1613400475.9,286047003.1,N
1613400495.7,286047002.2,N
1613400515.6,286046995.1,N
1613400535.4,286046991.4,N
1613400555.2,286046999.2,N
1613400575.1,286047001.7,N
1613400576.0,286047001.7,N
1613400595.8,286047011.2,N
1613400615.7,286047014.2,N
1613400635.5,286047016.3,N
1613400655.3,286047015.5,N
1613400675.2,286047020.0,N
1613400695.9,286047023.0,N
1613400715.7,286047025.7,N
1613400735.6,286047025.5,N
1613400755.4,286047027.5,N
1613400775.3,286047030.8,N
1613400795.1,286047034.7,N
1613400796.0,286047034.7,N
1613400815.8,286047040.2,N
1613400835.7,286047043.8,N
1613400855.5,286047042.1,N
1613400875.3,286047038.1,N
1613400895.2,286047037.7,N
1613400915.0,286047036.3,N
1613400915.9,286047036.3,N
1613400935.8,286047026.7,N
1613400955.6,286047020.5,N
1613400975.4,286047021.1,N
1613400995.3,286047024.7,N
1613401015.1,286047024.0,N
1613401035.8,286047025.9,N
1613401055.7,286047023.7,N
1613401075.5,286047025.9,N
1613401095.3,286047024.5,N
1613401115.2,286047024.6,N
1613401135.0,286047024.5,N
1613401135.9,286047024.5,N
1613401155.8,286047027.6,Y
1613401175.6,286046999.7,P
1613401195.4,286047010.5,N
